Weather History for KTQE - August, 2014

Change the Weather History Date:

Sunday, August 10, 2014

  Actual Average Record
Temperature  
Mean Temperature 73 °F -  
Max Temperature 80 °F 86 °F 100 °F (1976)
Min Temperature 68 °F 61 °F 47 °F (1967)
Cooling Degree Days 8    
Growing Degree Days 23 (Base 50)    
Moisture  
Dew Point 68 °F    
Average Humidity 86    
Maximum Humidity 96    
Minimum Humidity 71    
Precipitation  
Precipitation 0.08 in - - ()
Sea Level Pressure  
Sea Level Pressure 30.02 in    
Wind  
Wind Speed 3 mph (SE)    
Max Wind Speed 7 mph    
Max Gust Speed -    
Visibility 6 miles    
Events Rain , Thunderstorm    
Averages and records for this station are not official NWS values.
T = Trace of Precipitation, MM = Missing Value Source: NWS Daily Summary

Daily Weather History Graph

Daily Weather History Graph

Search for Another Location

Airport or City:

Trip Planner

Search our weather history database for the weather conditions in past years. The results will help you decide how hot, cold, wet, or windy it might be!

Date:

Astronomy

Aug. 10, 2014 Rise Set
Actual Time 6:27 AM CDT 8:31 PM CDT
Civil Twilight 5:57 AM CDT 9:01 PM CDT
Nautical Twilight 5:20 AM CDT 9:38 PM CDT
Astronomical Twilight 4:39 AM CDT 10:19 PM CDT
Moon 8:17 PM CDT (8/10) 6:22 AM CDT (8/10)
Length of Visible Light 15h 04m
Length of Day
14h 03m
Full, 100% of the Moon is Illuminated
Aug 10
Full
Aug 10
Full
Aug 17
Last Quarter
Aug 25
New
Sep 2
First Quarter

Hourly Weather History & Observations

Time (CDT) Temp. Dew Point Humidity Pressure Visibility Wind Dir Wind Speed Gust Speed Precip Events Conditions
12:54 AM 70.0 °F 66.9 °F 90% 30.01 in 6.0 mi SSE 5.8 mph - N/A   Clear
1:54 AM 70.0 °F 66.9 °F 90% 30.00 in 5.0 mi ESE 3.5 mph - N/A   Mostly Cloudy
2:54 AM 70.0 °F 66.9 °F 90% 29.98 in 5.0 mi East 4.6 mph - N/A   Mostly Cloudy
3:39 AM 69.1 °F 66.9 °F 93% 30.01 in 4.0 mi SE 4.6 mph - N/A   Mostly Cloudy
4:23 AM 69.1 °F 66.9 °F 93% 30.00 in 4.0 mi ESE 4.6 mph - N/A   Mostly Cloudy
4:54 AM 69.1 °F 66.9 °F 93% 29.98 in 4.0 mi Calm Calm - N/A   Scattered Clouds
5:02 AM 70.0 °F 66.9 °F 90% 30.01 in 4.0 mi Calm Calm - N/A   Mostly Cloudy
5:32 AM 69.1 °F 66.0 °F 90% 30.01 in 4.0 mi SE 3.5 mph - N/A   Mostly Cloudy
5:45 AM 68.0 °F 66.0 °F 93% 30.01 in 3.0 mi South 3.5 mph - N/A   Scattered Clouds
5:54 AM 68.0 °F 66.0 °F 93% 29.98 in 3.0 mi SSE 3.5 mph - N/A   Scattered Clouds
6:04 AM 68.0 °F 66.0 °F 93% 30.02 in 3.0 mi Calm Calm - N/A   Mostly Cloudy
6:54 AM 69.1 °F 66.9 °F 93% 30.00 in 3.0 mi ESE 3.5 mph - N/A   Overcast
7:13 AM 69.1 °F 66.9 °F 93% 30.03 in 2.0 mi Calm Calm - N/A   Overcast
7:54 AM 70.0 °F 66.9 °F 90% 30.02 in 2.5 mi Calm Calm - N/A   Overcast
8:20 AM 70.0 °F 66.9 °F 90% 30.05 in 2.5 mi Calm Calm - N/A   Overcast
8:31 AM 70.0 °F 66.9 °F 90% 30.04 in 3.0 mi Calm Calm - N/A   Overcast
8:54 AM 71.1 °F 68.0 °F 90% 30.01 in 3.0 mi Calm Calm - N/A   Overcast
9:14 AM 71.1 °F 68.0 °F 90% 30.04 in 3.0 mi Calm Calm - N/A   Overcast
9:38 AM 72.0 °F 69.1 °F 91% 30.04 in 4.0 mi Calm Calm - N/A   Overcast
9:54 AM 73.0 °F 69.1 °F 87% 30.01 in 5.0 mi WNW 3.5 mph - N/A   Overcast
10:54 AM 75.9 °F 70.0 °F 82% 30.02 in 7.0 mi North 5.8 mph - N/A   Mostly Cloudy
11:14 AM 75.9 °F 69.1 °F 79% 30.05 in 8.0 mi NNE 5.8 mph - N/A   Overcast
11:36 AM 75.9 °F 70.0 °F 82% 30.05 in 8.0 mi ENE 5.8 mph - N/A   Scattered Clouds
11:54 AM 77.0 °F 69.1 °F 76% 30.03 in 8.0 mi ENE 4.6 mph - N/A   Mostly Cloudy
12:29 PM 75.9 °F 69.1 °F 79% 30.07 in 8.0 mi ENE 6.9 mph - N/A   Overcast
12:54 PM 77.0 °F 68.0 °F 74% 30.04 in 10.0 mi ENE 5.8 mph - N/A   Mostly Cloudy
1:07 PM 77.0 °F 69.1 °F 76% 30.07 in 10.0 mi East 6.9 mph - N/A   Mostly Cloudy
1:45 PM 75.9 °F 70.0 °F 82% 30.05 in 9.0 mi SSE 4.6 mph - N/A   Mostly Cloudy
1:54 PM 75.9 °F 70.0 °F 82% 30.02 in 9.0 mi South 3.5 mph - N/A   Mostly Cloudy
2:54 PM 75.9 °F 69.1 °F 79% 30.01 in 10.0 mi SE 3.5 mph - N/A   Partly Cloudy
3:54 PM 75.9 °F 69.1 °F 79% 30.00 in 10.0 mi South 4.6 mph - N/A   Clear
4:54 PM 78.1 °F 68.0 °F 71% 30.00 in 10.0 mi SE 4.6 mph - N/A   Partly Cloudy
5:07 PM 77.0 °F 68.0 °F 74% 30.04 in 10.0 mi Calm Calm - N/A Thunderstorm Partly Cloudy
5:25 PM 77.0 °F 68.0 °F 74% 30.03 in 10.0 mi SSW 4.6 mph - N/A   Partly Cloudy
5:54 PM 77.0 °F 69.1 °F 76% 29.99 in 10.0 mi Calm Calm - N/A   Clear
6:54 PM 78.1 °F 69.1 °F 74% 29.99 in 10.0 mi Calm Calm - N/A   Clear
7:16 PM 77.0 °F 69.1 °F 76% 30.02 in 10.0 mi Calm Calm - N/A Thunderstorm Clear
7:44 PM 77.0 °F 71.1 °F 82% 30.02 in 1.2 mi Calm Calm - 0.05 in Rain , Thunderstorm Light Rain
7:47 PM 77.0 °F 70.0 °F 79% 30.02 in 4.0 mi Calm Calm - 0.05 in Rain , Thunderstorm Light Rain
7:54 PM 75.9 °F 70.0 °F 82% 29.99 in 2.0 mi Calm Calm - 0.08 in Rain , Thunderstorm Rain
8:07 PM 75.9 °F 72.0 °F 87% 30.02 in 10.0 mi Calm Calm - 0.00 in Thunderstorm Mostly Cloudy
8:19 PM 75.9 °F 71.1 °F 85% 30.02 in 10.0 mi Calm Calm - 0.00 in   Partly Cloudy
8:54 PM 73.0 °F 70.0 °F 90% 30.00 in 8.0 mi Calm Calm - 0.00 in   Clear
9:54 PM 71.1 °F 68.0 °F 90% 30.02 in 8.0 mi West 3.5 mph - N/A   Clear
10:54 PM 69.1 °F 66.9 °F 93% 30.02 in 1.8 mi WNW 3.5 mph - N/A   Clear
10:57 PM 69.1 °F 66.9 °F 93% 30.05 in 3.0 mi Calm Calm - N/A   Clear
11:15 PM 68.0 °F 66.0 °F 93% 30.05 in 2.5 mi WNW 5.8 mph - N/A   Clear
11:24 PM 69.1 °F 68.0 °F 96% 30.06 in 6.0 mi WNW 6.9 mph - N/A   Clear
11:54 PM 70.0 °F 66.9 °F 90% 30.03 in 10.0 mi NW 6.9 mph - N/A   Clear